[[{"header":{"parameterUnit":"m.s-1","parameterCategory":1,"la1":30.2991,"la2":30.254,"lo1":-89.0895,"lo2":-89.0444,"dy":0.0017,"dx":0.0017,"nx":28,"ny":28,"refTime":"2024-06-27T09:00:00:Z","depth":0,"parameterNumber":2,"parameterNumberName":"U-component_of_WINDS"},"data":[0,0,0,0,0,0,0,0,0,0,0,0,0,0,0,0,0,0,0,0,0,0,0,0,0,0,0,0,0,0,0,0,0,0,0,0,0,0,0,0,0,0,0,0,0,0,0,0,0,0,0,0,0,0,0,0,0,0,3.7565,3.7567,0,3.7761,3.7763,3.7765,3.7788,3.7787,3.7785,3.7783,3.7985,3.7992,3.7999,0,0,0,0,0,0,0,0,0,0,0,0,0,3.7213,3.7219,3.7564,3.7567,3.7569,3.776,3.7763,3.7766,3.7789,3.7786,3.7784,3.7782,3.7983,3.7991,3.8,0,0,0,0,0,0,0,0,0,0,0,0,0,3.7383,3.7221,3.7564,3.7604,3.7609,3.776,3.7763,3.7766,3.7789,3.7786,3.7783,3.7781,3.798,3.7991,3.8001,3.8126,0,0,3.8034,3.8039,0,0,0,0,0,0,0,0,3.7373,3.7396,3.7596,3.7601,3.7608,3.7747,3.7713,3.7887,3.779,3.7721,3.7783,3.7779,3.7909,3.7925,3.7968,3.8135,3.8144,3.8035,3.8042,3.8046,3.8049,0,0,0,0,0,0,0,3.7361,3.7388,3.7642,3.7598,3.7606,3.7613,3.7634,3.7746,3.7829,3.7727,3.7729,3.7752,3.7911,3.7958,3.7973,3.8147,3.8035,3.8044,3.8051,3.8055,3.8427,3.8431,0,0,0,0,0,0,3.7342,3.7378,3.7636,3.7648,3.7481,3.7622,3.7645,3.7705,3.7828,3.7843,3.7754,3.7752,3.7941,3.7961,3.798,3.8134,3.8046,3.8056,3.8063,3.8424,3.8428,3.8432,0,0,0,0,0,0,3.7334,3.7365,3.7628,3.7514,3.7548,3.7631,3.7698,3.7711,3.7757,3.7848,3.7863,3.7786,3.7939,3.7965,3.809,3.8141,3.8061,3.8071,3.842,3.8425,3.843,3.8442,0,0,0,0,0,0,3.7324,3.7362,3.7409,3.7514,3.7554,3.7733,3.7702,3.7717,3.7775,3.7775,3.7882,3.7897,3.7939,3.8073,3.81,3.8155,3.8079,3.8416,3.8422,3.8428,3.8438,3.8447,3.8455,0,0,0,0,0,3.7312,3.7405,3.7411,3.7442,3.7614,3.7736,3.7758,3.7804,3.7779,3.7828,3.7887,3.7894,3.8132,3.8086,3.8116,3.8175,3.8413,3.842,3.8428,3.8434,3.8445,3.8455,0,0,0,0,0,0,3.7304,3.7419,3.7428,3.7558,3.7637,3.7739,3.7802,3.7815,3.7903,3.7898,3.7952,3.7976,3.8098,3.815,3.8096,3.8303,3.827,3.8284,3.8264,3.8276,3.8285,3.8269,3.8088,0,0,0,0,0,3.7317,3.7406,3.7502,3.7608,3.7647,3.7718,3.7773,3.7801,3.7885,3.7919,3.7987,3.8068,3.8162,3.8222,3.8313,3.8446,3.847,3.8502,3.8511,3.8518,3.8528,3.8603,3.8618,3.8457,3.8457,3.8457,0,0,3.7346,3.742,3.7472,3.7608,3.7673,3.7764,3.7746,3.7842,3.7911,3.7934,3.8055,3.8108,3.8203,3.8332,3.8393,3.8379,3.8579,3.8527,3.8532,3.854,3.8612,3.8627,3.8641,3.8462,3.8461,3.846,0,0,3.7443,3.7509,3.7604,3.7669,3.7767,3.7814,3.7837,3.7939,3.7975,3.8097,3.8116,3.8199,3.8359,3.8426,3.8481,3.8607,3.8617,3.8636,3.8681,3.8753,3.8766,3.8777,3.8822,3.8837,3.8647,3.8647,3.8647,0,3.7466,3.7603,3.7651,3.7748,3.7807,3.7833,3.793,3.7992,3.8114,3.8155,3.8138,3.834,3.8406,3.8551,3.8582,3.8626,3.8654,3.8622,3.876,3.8772,3.8784,3.8826,3.8843,3.8648,3.8648,3.8648,3.8648,0,3.7626,3.7722,3.7787,3.7905,3.7972,3.8068,3.8132,3.8194,3.8218,3.8267,3.8392,3.8473,3.8581,3.8618,3.8642,3.8767,3.8756,3.8749,3.8717,3.88,3.8841,3.8858,3.8651,3.865,3.865,3.8649,0,0,3.7722,3.7867,3.7889,3.7944,3.8055,3.813,3.8228,3.8334,3.8386,3.8471,3.8555,3.8691,3.8685,3.8748,3.878,3.8844,3.8938,3.883,3.8833,3.8846,3.9081,3.9083,3.9101,3.8946,3.895,3.8952,3.9072,0,3.7831,3.8006,3.8053,3.8202,3.829,3.8318,3.8404,3.8482,3.8531,3.8614,3.8669,3.8764,3.8751,3.8788,3.8853,3.8913,3.8986,3.8905,3.9024,3.9028,3.8997,3.9123,3.9126,3.9235,3.9089,3.9092,3.9094,0,3.7981,3.8069,3.8226,3.8327,3.8366,3.8442,3.8543,3.8623,3.8713,3.8744,3.8815,3.8842,3.8947,3.8911,3.9056,3.9,3.9053,3.909,3.9095,3.9106,3.9064,3.9136,3.9271,3.9287,3.912,3.9117,3.9116,0,3.8033,3.8191,3.8306,3.8352,3.8473,3.8526,3.8579,3.8666,3.8726,3.8816,3.8856,3.8956,3.901,3.9088,3.9142,3.9111,3.9282,3.9251,3.9311,3.931,3.9344,3.934,3.9487,3.9381,3.938,3.938,3.938,0,3.8149,3.8244,3.8331,3.8401,3.8509,3.8563,3.8669,3.8723,3.8801,3.8882,3.8914,3.899,3.9057,3.9143,3.9186,3.9299,3.9324,3.9353,3.9363,3.9349,3.9345,3.9382,3.9375,3.9385,3.9384,3.9383,3.9382,0,3.8224,3.8286,3.8413,3.8518,3.8546,3.8621,3.8711,3.8781,3.8832,3.8936,3.8963,3.9044,3.9146,3.9209,3.9339,3.9368,3.9493,3.9501,3.9462,3.9466,3.9522,3.9515,3.9696,3.9722,3.96,3.9601,3.9602,0,3.8292,3.8366,3.8479,3.8536,3.859,3.8681,3.8744,3.8802,3.8866,3.8975,3.9032,3.9136,3.9223,3.9386,3.9456,3.9557,3.9566,3.9623,3.9581,3.9565,3.9565,3.9559,3.9567,3.9629,3.963,3.9631,3.9631,0,3.8407,3.8435,3.8523,3.8623,3.8697,3.8779,3.886,3.8905,3.8977,3.9047,3.9153,3.922,3.9353,3.9457,3.9563,3.9619,3.9637,3.9645,3.9663,3.9649,3.9622,3.9636,3.9479,3.9639,3.9639,3.9638,3.9638,3.9637,3.848,3.8547,3.8637,3.8735,3.8803,3.8879,3.8949,3.901,3.9099,3.9211,3.9241,3.9351,3.9442,3.9586,3.9645,3.9733,3.9724,3.9751,3.9758,3.9763,3.9764,3.961,3.9752,3.9752,3.9752,3.9752,3.9752,0,3.8595,3.8655,3.8745,3.8858,3.8935,3.8947,3.9038,3.9102,3.9199,3.9281,3.9366,3.9488,3.9589,3.9668,3.9773,3.9828,3.9839,3.9853,3.9848,3.9861,3.9766,3.9739,3.9842,3.9842,3.9842,3.9842,3.9842,3.9842,3.8663,3.8777,3.8816,3.8964,3.9024,3.9132,3.9183,3.9254,3.932,3.9454,3.9538,3.9589,3.9671,3.9782,3.9876,3.9897,3.9933,3.9945,3.9967,3.9877,3.9867,3.9858,3.9832,3.9953,3.9953,4.0054,4.0055,4.0055]},{"header":{"parameterUnit":"m.s-1","parameterCategory":1,"la1":30.2991,"la2":30.254,"lo1":-89.0895,"lo2":-89.0444,"dy":0.0017,"dx":0.0017,"nx":28,"ny":28,"refTime":"2024-06-27T09:00:00:Z","depth":0,"parameterNumber":3,"parameterNumberName":"V-component_of_WINDS"},"data":[0,0,0,0,0,0,0,0,0,0,0,0,0,0,0,0,0,0,0,0,0,0,0,0,0,0,0,0,0,0,0,0,0,0,0,0,0,0,0,0,0,0,0,0,0,0,0,0,0,0,0,0,0,0,0,0,0,0,4.7074,4.7075,0,4.7162,4.7163,4.7164,4.7171,4.717,4.7169,4.7168,4.7252,4.7255,4.7258,0,0,0,0,0,0,0,0,0,0,0,0,0,4.6904,4.6907,4.7074,4.7075,4.7076,4.7162,4.7163,4.7165,4.7171,4.717,4.7169,4.7168,4.7251,4.7255,4.7258,0,0,0,0,0,0,0,0,0,0,0,0,0,4.6983,4.6908,4.7074,4.709,4.7093,4.7162,4.7163,4.7165,4.7171,4.717,4.7168,4.7167,4.725,4.7254,4.7259,4.7317,0,0,4.7273,4.7275,0,0,0,0,0,0,0,0,4.6979,4.6989,4.7087,4.7089,4.7092,4.7154,4.7134,4.7215,4.7172,4.7141,4.7168,4.7166,4.722,4.7227,4.7247,4.732,4.7324,4.7274,4.7277,4.7279,4.728,0,0,0,0,0,0,0,4.6973,4.6986,4.7109,4.7088,4.7091,4.709,4.71,4.7149,4.7187,4.7144,4.7144,4.7155,4.7221,4.7242,4.7249,4.7325,4.7274,4.7278,4.7281,4.7282,4.7446,4.7448,0,0,0,0,0,0,4.6965,4.6981,4.7106,4.7112,4.7031,4.7094,4.7105,4.7136,4.7187,4.7194,4.7156,4.7155,4.7235,4.7243,4.7252,4.732,4.7279,4.7283,4.7286,4.7445,4.7447,4.7448,0,0,0,0,0,0,4.6962,4.6977,4.7103,4.7047,4.7062,4.7099,4.7133,4.7138,4.7159,4.7197,4.7203,4.7171,4.7234,4.7245,4.73,4.7323,4.7285,4.7289,4.7443,4.7445,4.7447,4.7458,0,0,0,0,0,0,4.6957,4.6975,4.7,4.7047,4.7066,4.7152,4.7134,4.7141,4.7168,4.7167,4.7212,4.7218,4.7234,4.7293,4.7304,4.7329,4.7293,4.7441,4.7444,4.7447,4.7456,4.7461,4.7465,0,0,0,0,0,4.6951,4.6999,4.7001,4.7016,4.7097,4.7153,4.7163,4.7182,4.717,4.7193,4.7216,4.7217,4.7319,4.7298,4.7312,4.7338,4.7439,4.7443,4.7446,4.7454,4.746,4.7465,0,0,0,0,0,0,4.6952,4.7005,4.7008,4.7074,4.7109,4.7154,4.7184,4.7188,4.7227,4.7224,4.7244,4.7254,4.7307,4.7328,4.7304,4.7394,4.7377,4.7384,4.7379,4.7384,4.7389,4.7382,4.7297,0,0,0,0,0,4.696,4.7004,4.7047,4.71,4.7118,4.7148,4.7173,4.7185,4.7221,4.7235,4.7263,4.7297,4.7336,4.7361,4.74,4.7459,4.7467,4.7483,4.7487,4.7491,4.7495,4.7525,4.7531,4.746,4.7459,4.7459,0,0,4.6977,4.7011,4.7037,4.7101,4.713,4.7171,4.7161,4.7206,4.7236,4.7242,4.7295,4.7316,4.7354,4.7411,4.7437,4.743,4.7517,4.7495,4.7498,4.7501,4.7529,4.7536,4.7542,4.7462,4.7461,4.7461,0,0,4.7028,4.706,4.7107,4.7135,4.7179,4.7198,4.7209,4.7254,4.7268,4.7322,4.7327,4.7361,4.743,4.7456,4.7478,4.7536,4.7536,4.7548,4.757,4.7598,4.7604,4.7609,4.7627,4.7634,4.7552,4.7553,4.7553,0,4.7043,4.7108,4.7129,4.7174,4.72,4.7209,4.7254,4.728,4.7333,4.735,4.7341,4.7425,4.7452,4.7513,4.7526,4.7545,4.7555,4.7542,4.7602,4.7607,4.7612,4.7629,4.7636,4.7553,4.7553,4.7553,4.7553,0,4.7122,4.7167,4.7199,4.7251,4.7281,4.7326,4.7351,4.7378,4.7386,4.7405,4.7457,4.7489,4.7533,4.7548,4.7557,4.761,4.7603,4.7598,4.7582,4.762,4.7636,4.7643,4.7555,4.7554,4.7554,4.7554,0,0,4.7178,4.724,4.7251,4.7274,4.7321,4.7355,4.7398,4.7442,4.7463,4.7499,4.7534,4.759,4.7585,4.761,4.762,4.7646,4.7685,4.7637,4.7638,4.7643,4.7742,4.7745,4.7752,4.7686,4.7688,4.7689,4.7738,0,4.7233,4.7313,4.7332,4.7399,4.7438,4.7445,4.7482,4.7513,4.7531,4.7565,4.7585,4.7623,4.7615,4.763,4.7655,4.7675,4.7705,4.7672,4.7716,4.7717,4.7705,4.7762,4.7765,4.781,4.7745,4.7746,4.7747,0,4.7309,4.7347,4.7418,4.7457,4.7475,4.7508,4.7548,4.7582,4.7616,4.7627,4.7654,4.7661,4.7703,4.7685,4.7741,4.7717,4.7736,4.7748,4.7751,4.7754,4.7734,4.7765,4.7825,4.7831,4.7758,4.7757,4.7756,0,4.7339,4.7408,4.7459,4.7478,4.7526,4.7549,4.7569,4.7602,4.7626,4.766,4.7676,4.7714,4.7734,4.7762,4.7778,4.7764,4.7831,4.7816,4.7839,4.7839,4.7853,4.7851,4.7915,4.7867,4.7867,4.7867,4.7867,0,4.7398,4.744,4.7473,4.7504,4.755,4.757,4.7614,4.7634,4.7663,4.7696,4.7704,4.7734,4.7754,4.7786,4.7799,4.7841,4.7851,4.7858,4.7861,4.7857,4.7856,4.7869,4.7865,4.7869,4.7868,4.7868,4.7868,0,4.744,4.7464,4.7519,4.7559,4.757,4.7602,4.7636,4.7664,4.7682,4.7723,4.7733,4.7761,4.7798,4.7817,4.7864,4.7872,4.7919,4.7921,4.7908,4.7909,4.7931,4.7928,4.8004,4.8014,4.7961,4.7962,4.7962,0,4.7475,4.7508,4.7552,4.7575,4.7596,4.7634,4.7658,4.7677,4.7702,4.7742,4.7765,4.7803,4.7835,4.7894,4.7916,4.7951,4.7952,4.7976,4.7957,4.7951,4.7949,4.7947,4.7949,4.7979,4.7979,4.798,4.798,0,4.7534,4.7544,4.758,4.762,4.7649,4.7681,4.7712,4.7729,4.7753,4.778,4.7819,4.7843,4.7891,4.7927,4.7963,4.7981,4.7984,4.7986,4.7993,4.7989,4.7979,4.7982,4.7916,4.7984,4.7984,4.7983,4.7983,4.7983,4.7573,4.7601,4.7636,4.7675,4.77,4.7728,4.7756,4.7777,4.7811,4.7852,4.786,4.7901,4.793,4.7979,4.7998,4.8028,4.8023,4.8034,4.8036,4.8038,4.8038,4.7975,4.8035,4.8035,4.8035,4.8035,4.8035,0,4.763,4.7652,4.7688,4.7731,4.7761,4.7762,4.7796,4.782,4.7856,4.7884,4.7915,4.7958,4.7993,4.8017,4.8052,4.8071,4.8073,4.8079,4.8077,4.8081,4.8042,4.8031,4.8077,4.8077,4.8077,4.8077,4.8077,4.8077,4.7663,4.7711,4.7724,4.7782,4.7803,4.7844,4.7863,4.7887,4.791,4.7958,4.7988,4.8004,4.803,4.8066,4.8097,4.8103,4.8114,4.812,4.8126,4.8089,4.8084,4.808,4.807,4.8123,4.8123,4.8162,4.8163,4.8163]}]]